Hourly Data Report for August 23, 2015

All times are specified in Local Standard Time (LST). Add 1 hour to adjust for Daylight Saving Time where and when it is observed.

TORONTO INTL A
ONTARIO

43°40'36.000" N
79°37'50.000" W
173.40 m
6158731
71624
YYZ

Download Data

Hourly Data (August 2015)
Hourly Data Report for August 23, 2015
Temp Definition
°C
Dew Point Temp Definition
°C
Rel Hum Definition
%
Wind Dir Definition
10's deg

Wind Spd Definition
km/h
Visibility Definition
km
Stn Press Definition
kPa
Hmdx Definition


Wind Chill Definition


Weather Definition


TIME
00:00 Legend Double Dagger 18.2 13.8 75 36 2 24.1 99.85     LegendNANA
01:00 Legend Double Dagger 18.2 13.8 75 9 7 24.1 99.80     Clear
02:00 Legend Double Dagger 17.5 13.7 78 12 5 24.1 99.79     LegendNANA
03:00 Legend Double Dagger 16.7 13.3 80 6 5 24.1 99.77     LegendNANA
04:00 Legend Double Dagger 14.8 12.2 84 1 7 24.1 99.76     Clear
05:00 Legend Double Dagger 13.8 11.5 86 2 9 24.1 99.74     LegendNANA
06:00 Legend Double Dagger 13.8 11.7 87 4 4 24.1 99.74     LegendNANA
07:00 Legend Double Dagger 17.4 14.2 81 9 8 24.1 99.72     Mainly Clear
08:00 Legend Double Dagger 19.2 14.7 75 8 16 24.1 99.66     LegendNANA
09:00 Legend Double Dagger 19.9 15.0 73 9 13 24.1 99.57     LegendNANA
10:00 Legend Double Dagger 20.6 14.6 68 14 16 24.1 99.52     Mostly Cloudy
11:00 Legend Double Dagger 21.6 15.3 67 12 14 24.1 99.50 26   LegendNANA
12:00 Legend Double Dagger 22.3 13.2 56 13 15 24.1 99.50 25   LegendNANA
13:00 Legend Double Dagger 23.7 12.5 49 13 18 24.1 99.38 26   Clear
14:00 Legend Double Dagger 23.9 15.0 57 12 19 24.1 99.32 28   LegendNANA
15:00 Legend Double Dagger 23.8 16.0 61 14 13 24.1 99.28 28   LegendNANA
16:00 Legend Double Dagger 23.8 14.9 57 15 14 24.1 99.24 28   Mostly Cloudy
17:00 Legend Double Dagger 23.1 14.0 56 14 14 24.1 99.21 26   LegendNANA
18:00 Legend Double Dagger 22.6 14.8 61 12 17 24.1 99.14 26   LegendNANA
19:00 Legend Double Dagger 21.4 14.7 65 12 10 24.1 99.12 25   Mostly Cloudy
20:00 Legend Double Dagger 20.9 14.4 66 11 14 24.1 99.06 25   LegendNANA
21:00 Legend Double Dagger 20.7 16.4 76 11 13 24.1 98.99 26   LegendNANA
22:00 Legend Double Dagger 20.7 17.2 80 12 15 24.1 98.94 26   Mostly Cloudy
23:00 Legend Double Dagger 20.8 17.7 82 13 10 24.1 98.88 27   LegendNANA

Notes on Data Quality.

Legend

  • E = Estimated
  • M = Missing
  • NA = Not Available
  • ‡ = Partner data that is not subject to review by the National Climate Archives
Date modified: